カタログに戻る

SL-16 DEB

LostLEO
NORAD 39884·DEBRIS·🇷🇺 Russia

打ち上げ Mar 26, 1993 から Baikonur Cosmodrome

Loading…

次のパス (今後24時間)

TLE

古いSource: Space-Track

元期: Nov 14, 2022, 22:04 UTC

1 39884U 93016BJ  22318.91971825  .00005330  00000-0  20520-2 0  9991
2 39884  70.9592 163.9887 0119094 355.9234   4.0911 14.26907657923885

AllMySatでSL-16 DEBをリアルタイム追跡

Download on the App Store